Terminal Aerodrome Forecast
Issued by NWS Greer, SC

Current Version | Previous Version | Text Only | Print | Product List | Glossary On
Versions: 1 2 3 4 5 6 7 8 9 10 11 12 13 14 15 16 17 18 19 20 21 22 23 24 25 26 27 28 29 30 31 32 33 34 35 36 37 38 39 40 41 42 43 44 45 46 47 48 49 50
320
FTUS42 KGSP 212334
TAFCLT
TAF
KCLT 212334Z 2200/2306 14005KT P6SM SCT250
     FM221600 12007KT P6SM FEW050 BKN200
     FM221900 12007KT P6SM BKN060 OVC150
     FM222100 11010G17KT P6SM OVC060 PROB30 2303/2306 4SM -RA
      OVC025=

USA.gov is the U.S. government's official web portal to all federal, state and local government web resources and services.